Voltar ao catálogo

STARLINK-30506

AtivoComunicaçõesVLEO
NORAD 58072·PAYLOAD·🇺🇸 United States

Lançado Oct 13, 2023 de Cape Canaveral Space Force Station

Loading…

Próximas Passagens (próximas 24 horas)

TLE

AtualizadoSource: CelesTrak SupGP

Época: Sep 15, 2026, 02:45 UTC

1 58072C 23158X   26258.11506944 -.00021165  00000+0 -76644-3 0  2588
2 58072  43.0016  37.4173 0001591 267.3774 260.4289 15.27594623    11

Acompanhe STARLINK-30506 em tempo real com AllMySat

Download on the App Store